Retour au catalogue

STARLINK-34993

ActifCommunicationsSSO
NORAD 65389·PAYLOAD·🇺🇸 United States

Lancé Aug 30, 2025 depuis Vandenberg Space Force Base

Loading…

Prochains Passages (prochaines 24 heures)

TLE

FraisSource: CelesTrak SupGP

Époque: Sep 14, 2026, 23:05 UTC

1 65389C 25191L   26257.96229167  .00073300  00000+0  22752-2 0  2572
2 65389  97.2847 124.0745 0001993  92.6923 161.6051 15.33404100    18

Suivez STARLINK-34993 en temps réel avec AllMySat

Download on the App Store